Regional Weather Roundup
Issued by NWS

Home | Current Version | Previous Version | Text Only | Print | Product List | Glossary On
Versions: 1 2 3 4 5 6 7 8 9 10 11 12 13 14 15 16 17 18 19 20 21 22 23 24 25 26 27 28 29 30 31 32 33 34 35 36 37 38 39 40 41 42 43 44 45 46 47 48 49 50
000
ASCA42 TJSJ 170610
RWRPR
PUERTO RICO/U.S. VIRGIN ISLANDS HOURLY WEATHER ROUNDUP
NATIONAL WEATHER SERVICE SAN JUAN PR
200 AM AST SUN DEC 17 2017

PRZ001>002-007>008-010-170700-
PUERTO RICO

CITY           SKY/WX    TMP DP  RH WIND       PRES   REMARKS
SAN JUAN LMM   RAIN      77  75  94 NE17G23   30.05F
PONCE          CLEAR     72  70  94 E6        30.05F
$$

VIZ001>002-170700-
U.S. VIRGIN ISLANDS

CITY           SKY/WX    TMP DP  RH WIND       PRES   REMARKS
CHARLOTTE AMA  PTCLDY    79  72  78 E9        30.03F
CHRISTIANSTED  PTCLDY    79  70  73 NE12      30.03F
$$

HOURLY WEATHER ROUNDUP FOR THE NEWS MEDIA

CITY           SKY/WX    TMP DP  RH WIND       PRES   REMARKS
ORLANDO        CLEAR     58  53  84 N3        30.26F
NEW YORK       CLOUDY    34  22  61 N8        30.22S WCI  27
NEWARK         CLOUDY    34  24  67 N5        30.22R WCI  30
CHICAGO        CLOUDY    32  29  88 N6        30.04F WCI  26
HARTFORD       CLEAR     22  13  68 NW5       30.18R WCI  16
BOSTON         CLEAR     24   7  48 NW9G21    30.18R WCI  14
DALLAS         CLOUDY    45  43  93 SE9       30.05F
PHILADELPHIA   CLOUDY    37  29  72 CALM      30.21S
LOS ANGELES    CLEAR     60  53  77 N6        29.79R
WASHINGTON DC  PTCLDY    26  22  84 CALM      30.20S


USA.gov is the U.S. government's official web portal to all federal, state and local government web resources and services.